CW5458 Weather Reports


time (UTC)temp
C
wind
direction
speed
KPH
gust
KPH
rain 1hr
cm
rain 24hr
cm
rain mn
cm
humidity
%
barometer
mb
20260505171520 25 350 8.0 17.7 0.00 0.00 0.00 46 1016.4
20260505171008 25 347 3.2 16.1 0.00 0.00 0.00 49 1016.4
20260505170507 25 306 6.4 16.1 0.00 0.00 0.00 47 1016.4
20260505170027 25 312 0.0 12.9 0.00 0.00 0.00 48 1016.5
20260505165511 25 140 1.6 12.9 0.00 0.00 0.00 47 1016.4
20260505165007 25 167 4.8 20.9 0.00 0.00 0.00 47 1016.6
20260505164524 25 334 9.7 20.9 0.00 0.00 0.00 46 1016.7
20260505164010 25 350 4.8 17.7 0.00 0.00 0.00 50 1016.7
20260505163506 24 319 3.2 17.7 0.00 0.00 0.00 50 1016.6
20260505163009 24 232 1.6 12.9 0.00 0.00 0.00 52 1016.7
20260505162506 24 360 4.8 20.9 0.00 0.00 0.00 50 1016.8
20260505162007 23 230 8.0 20.9 0.00 0.00 0.00 50 1016.9
20260505161518 23 314 11.3 20.9 0.00 0.00 0.00 51 1017.0
20260505161008 23 267 9.7 19.3 0.00 0.00 0.00 51 1017.0
20260505153031 22 317 3.2 19.3 0.00 0.00 0.00 60 1017.5
20260505152508 22 11 3.2 19.3 0.00 0.00 0.00 59 1017.5
20260505152008 21 340 6.4 17.7 0.00 0.00 0.00 62 1017.6
20260505151513 21 276 3.2 16.1 0.00 0.00 0.00 61 1017.5
20260505151006 21 315 1.6 11.3 0.00 0.00 0.00 62 1017.6
20260505140510 20 128 3.2 14.5 0.00 0.00 0.00 68 1017.5
20260505125008 15 360 4.8 11.3 0.00 0.00 0.00 78 1017.6
20260505124522 15 360 1.6 6.4 0.00 0.00 0.00 80 1017.6
20260505124011 14 360 1.6 6.4 0.00 0.00 0.00 81 1017.5
20260505123508 13 239 0.0 6.4 0.00 0.00 0.00 83 1017.6
20260505123028 13 352 1.6 9.7 0.00 0.00 0.00 83 1017.6
20260505122509 13 22 3.2 9.7 0.00 0.00 0.00 85 1017.6
20260505122013 12 319 0.0 4.8 0.00 0.00 0.00 86 1017.6
20260505121523 12 360 0.0 3.2 0.00 0.00 0.00 87 1017.6
20260505120029 11 323 0.0 3.2 0.00 0.00 0.00 90 1017.6
20260505115509 11 323 0.0 1.6 0.00 0.00 0.00 90 1017.5
20260505115007 11 360 0.0 1.6 0.00 0.00 0.00 91 1017.4
20260505114526 11 360 0.0 3.2 0.00 0.00 0.00 91 1017.3
20260505114008 10 360 0.0 3.2 0.00 0.00 0.00 90 1017.3
20260505113504 10 360 0.0 1.6 0.00 0.00 0.00 91 1017.3
20260505113003 10 360 0.0 1.6 0.00 0.00 0.00 90 1017.2
20260505112507 10 360 0.0 0.0 0.00 0.00 0.00 91 1017.1
20260505112006 10 360 0.0 1.6 0.00 0.00 0.00 91 1017.1
20260505111507 10 360 0.0 1.6 0.00 0.00 0.00 90 1017.0
20260505111002 10 360 0.0 1.6 0.00 0.00 0.00 90 1017.0
20260505110503 10 360 0.0 0.0 0.00 0.00 0.00 90 1017.0
20260505102002 10 360 0.0 0.0 0.00 0.00 0.00 88 1016.5
20260505101508 10 360 0.0 0.0 0.00 0.00 0.00 88 1016.5
20260505101004 10 360 0.0 0.0 0.00 0.00 0.00 88 1016.4
20260505100503 10 360 0.0 0.0 0.00 0.00 0.00 87 1016.4
20260505100008 10 360 0.0 0.0 0.00 0.00 0.00 87 1016.4
20260505095503 10 360 0.0 0.0 0.00 0.00 0.00 86 1016.3
20260505095007 10 360 0.0 0.0 0.00 0.00 0.00 86 1016.2
20260505094508 10 360 0.0 0.0 0.00 0.00 0.00 85 1016.2
20260505094003 10 360 0.0 0.0 0.00 0.00 0.00 85 1016.2
20260505093512 10 360 0.0 0.0 0.00 0.00 0.00 85 1016.3
20260505093011 11 360 0.0 0.0 0.00 0.00 0.00 85 1016.2
20260505092503 11 360 0.0 1.6 0.00 0.00 0.00 84 1016.3
20260505092002 11 360 0.0 1.6 0.00 0.00 0.00 83 1016.2
20260505091505 11 360 0.0 0.0 0.00 0.00 0.00 83 1016.2
20260505091002 11 360 0.0 0.0 0.00 0.00 0.00 83 1016.2
20260505090503 11 360 0.0 0.0 0.00 0.00 0.00 82 1016.2
20260505090009 11 360 0.0 0.0 0.00 0.00 0.00 81 1016.2
20260505085504 11 360 0.0 0.0 0.00 0.00 0.00 81 1016.1
20260505085007 11 360 0.0 0.0 0.00 0.00 0.00 81 1016.1
20260505084516 12 360 0.0 0.0 0.00 0.00 0.00 80 1015.9
20260505084003 12 360 0.0 0.0 0.00 0.00 0.00 80 1015.9
20260505083503 12 360 0.0 0.0 0.00 0.00 0.00 79 1015.9
20260505083014 12 360 0.0 0.0 0.00 0.00 0.00 78 1015.8
20260505082009 12 360 0.0 0.0 0.00 0.00 0.00 77 1015.8
20260505081006 13 360 0.0 0.0 0.00 0.00 0.00 76 1015.8
20260505075503 13 360 0.0 3.2 0.00 0.00 0.00 74 1015.7
20260505075003 13 360 0.0 4.8 0.00 0.00 0.00 74 1015.6
20260505074004 13 360 0.0 3.2 0.00 0.00 0.00 73 1015.6
20260505073504 13 360 0.0 4.8 0.00 0.00 0.00 73 1015.5
20260505073012 13 360 1.6 4.8 0.00 0.00 0.00 73 1015.5
20260505072505 13 360 1.6 4.8 0.00 0.00 0.00 73 1015.5
20260505072010 13 360 1.6 4.8 0.00 0.00 0.00 73 1015.6
20260505071507 13 360 1.6 3.2 0.00 0.00 0.00 72 1015.5
20260505071011 14 360 0.0 3.2 0.00 0.00 0.00 71 1015.4
20260505070510 14 360 0.0 4.8 0.00 0.00 0.00 71 1015.3
20260505065004 14 360 1.6 6.4 0.00 0.00 0.00 70 1015.3
20260505064509 15 360 1.6 6.4 0.00 0.00 0.00 70 1015.3
20260505064004 15 360 1.6 6.4 0.00 0.00 0.00 70 1015.3
20260505063504 15 360 1.6 6.4 0.00 0.00 0.00 70 1015.3
20260505063010 15 360 3.2 6.4 0.00 0.00 0.00 69 1015.3
20260505062504 15 360 1.6 8.0 0.00 0.00 0.00 69 1015.3
20260505062007 15 360 3.2 8.0 0.00 0.00 0.00 69 1015.3
20260505061508 15 360 1.6 6.4 0.00 0.00 0.00 68 1015.3
20260505061009 15 360 1.6 6.4 0.00 0.00 0.00 68 1015.3
20260505060506 15 360 1.6 6.4 0.00 0.00 0.00 68 1015.4
20260505060007 15 360 1.6 6.4 0.00 0.00 0.00 68 1015.3
20260505055512 15 360 1.6 8.0 0.00 0.00 0.00 68 1015.4
20260505055003 15 360 1.6 8.0 0.00 0.00 0.00 68 1015.4
20260505054003 15 360 1.6 9.7 0.00 0.00 0.00 67 1015.5
20260505052505 16 360 4.8 9.7 0.00 0.00 0.00 67 1015.6
20260505052008 16 360 1.6 8.0 0.00 0.00 0.00 67 1015.7
20260505051512 16 360 3.2 6.4 0.00 0.00 0.00 67 1015.7
20260505051009 16 360 3.2 6.4 0.00 0.00 0.00 67 1015.8
20260505050511 16 360 1.6 6.4 0.00 0.00 0.00 67 1015.8
20260505041508 16 360 3.2 9.7 0.00 0.00 0.00 65 1015.7
20260505041004 16 360 3.2 12.9 0.00 0.00 0.00 65 1015.8
20260505040508 16 360 4.8 14.5 0.00 0.00 0.00 65 1015.8
20260505040012 17 360 1.6 14.5 0.00 0.00 0.00 65 1015.9
20260505035507 17 360 4.8 12.9 0.00 0.00 0.00 64 1015.9
20260505035006 17 360 4.8 12.9 0.00 0.00 0.00 64 1015.8
20260505034507 17 360 3.2 9.7 0.00 0.00 0.00 64 1015.9
20260505034012 17 360 3.2 14.5 0.00 0.00 0.00 64 1015.8
20260505033508 17 360 4.8 14.5 0.00 0.00 0.00 64 1015.8
20260505032503 17 360 6.4 17.7 0.00 0.00 0.00 63 1015.7
20260505032004 17 360 6.4 17.7 0.00 0.00 0.00 63 1015.8
20260505031003 17 360 4.8 14.5 0.00 0.00 0.00 62 1015.8
20260505030506 17 360 4.8 12.9 0.00 0.00 0.00 62 1015.8
20260505030010 18 360 4.8 17.7 0.00 0.00 0.00 62 1015.9
20260505025508 18 360 4.8 17.7 0.00 0.00 0.00 62 1015.8
20260505025008 18 360 4.8 16.1 0.00 0.00 0.00 61 1015.8
20260505024524 18 360 4.8 16.1 0.00 0.00 0.00 61 1015.8
20260505023504 18 360 6.4 16.1 0.00 0.00 0.00 61 1015.6
20260505023009 18 360 4.8 22.5 0.00 0.00 0.00 60 1015.6
20260505022512 18 360 8.0 22.5 0.00 0.00 0.00 60 1015.6
20260505022006 18 360 8.0 19.3 0.00 0.00 0.00 60 1015.5
20260505021530 18 360 6.4 19.3 0.00 0.00 0.00 60 1015.6
20260505021004 18 360 8.0 19.3 0.00 0.00 0.00 60 1015.6
20260505020503 19 360 8.0 17.7 0.00 0.00 0.00 60 1015.6
20260505020014 19 360 8.0 19.3 0.00 0.00 0.00 59 1015.5
20260505015506 19 360 8.0 19.3 0.00 0.00 0.00 59 1015.5
20260505015010 19 360 4.8 17.7 0.00 0.00 0.00 59 1015.5
20260505014519 19 360 4.8 14.5 0.00 0.00 0.00 58 1015.4
20260505014009 20 360 3.2 20.9 0.00 0.00 0.00 57 1015.4
20260505013512 20 360 4.8 20.9 0.00 0.00 0.00 56 1015.3
20260505012509 20 360 4.8 19.3 0.00 0.00 0.00 53 1015.1
20260505012007 20 360 6.4 25.7 0.00 0.00 0.00 51 1015.0
20260505011526 20 360 9.7 25.7 0.00 0.00 0.00 50 1014.9
20260505011006 20 360 8.0 14.5 0.00 0.00 0.00 48 1014.7
20260505010506 20 360 4.8 9.7 0.00 0.00 0.00 47 1014.7
20260505010009 20 360 3.2 4.8 0.00 0.00 0.00 46 1014.5
20260505005504 20 360 1.6 4.8 0.00 0.00 0.00 46 1014.5
20260505005007 20 360 1.6 4.8 0.00 0.00 0.00 46 1014.4
20260505004521 20 360 1.6 4.8 0.00 0.00 0.00 45 1014.3
20260505004009 21 360 1.6 6.4 0.00 0.00 0.00 45 1014.3
20260505003511 21 360 1.6 8.0 0.00 0.00 0.00 44 1014.3
20260505002513 21 360 1.6 6.4 0.00 0.00 0.00 44 1014.2
20260505002008 21 360 3.2 6.4 0.00 0.00 0.00 43 1014.1
20260505001524 21 360 1.6 6.4 0.00 0.00 0.00 43 1014.1
20260505001012 21 360 1.6 6.4 0.00 0.00 0.00 42 1014.1
20260505000506 22 360 3.2 4.8 0.00 0.00 0.00 43 1014.1
20260505000032 22 360 1.6 6.4 0.00 0.00 0.00 41 1014.1
20260504235510 22 360 1.6 8.0 0.00 0.00 0.00 41 1014.0
20260504235004 22 360 3.2 8.0 0.00 0.00 0.00 40 1014.0
20260504234515 22 360 1.6 6.4 0.00 0.00 0.00 39 1014.0
20260504234004 23 360 1.6 8.0 0.00 0.00 0.00 39 1013.8
20260504233506 23 360 1.6 8.0 0.00 0.00 0.00 40 1013.7
20260504233024 23 360 3.2 8.0 0.00 0.00 0.00 38 1013.7
20260504232507 23 360 3.2 9.7 0.00 0.00 0.00 37 1013.7
20260504232007 23 360 3.2 12.9 0.00 0.00 0.00 37 1013.7
20260504231528 23 344 3.2 19.3 0.00 0.00 0.00 36 1013.6
20260504231014 23 306 4.8 19.3 0.00 0.00 0.00 36 1013.6
20260504230506 23 302 6.4 16.1 0.00 0.00 0.00 35 1013.6
20260504230024 24 337 3.2 12.9 0.00 0.00 0.00 35 1013.6
20260504225508 24 360 4.8 17.7 0.00 0.00 0.00 35 1013.5
20260504225007 24 360 4.8 17.7 0.00 0.00 0.00 35 1013.5
20260504224535 24 360 9.7 17.7 0.00 0.00 0.00 34 1013.6
20260504224009 25 360 3.2 14.5 0.00 0.00 0.00 35 1013.5
20260504223504 25 360 3.2 14.5 0.00 0.00 0.00 34 1013.6
20260504223018 25 360 6.4 16.1 0.00 0.00 0.00 33 1013.5
20260504222508 25 360 6.4 16.1 0.00 0.00 0.00 34 1013.5
20260504222006 25 55 1.6 12.9 0.00 0.00 0.00 34 1013.5
20260504221523 26 360 4.8 12.9 0.00 0.00 0.00 33 1013.5
20260504221008 26 348 1.6 22.5 0.00 0.00 0.00 33 1013.5
20260504220508 26 58 11.3 22.5 0.00 0.00 0.00 31 1013.5
20260504220025 26 333 4.8 11.3 0.00 0.00 0.00 31 1013.5
20260504215509 27 315 3.2 17.7 0.00 0.00 0.00 30 1013.5
20260504215006 27 36 6.4 17.7 0.00 0.00 0.00 29 1013.4
20260504214526 27 332 9.7 17.7 0.00 0.00 0.00 29 1013.4
20260504214011 27 9 4.8 9.7 0.00 0.00 0.00 29 1013.4
20260504213028 27 34 0.0 9.7 0.00 0.00 0.00 30 1013.5
20260504212506 27 67 1.6 17.7 0.00 0.00 0.00 31 1013.5
20260504212006 27 207 1.6 17.7 0.00 0.00 0.00 28 1013.5
20260504210507 27 14 4.8 14.5 0.00 0.00 0.00 29 1013.5
20260504205507 27 323 9.7 16.1 0.00 0.00 0.00 27 1013.6
20260504205010 27 308 4.8 14.5 0.00 0.00 0.00 29 1013.6
20260504204525 27 94 3.2 14.5 0.00 0.00 0.00 26 1013.7
20260504204008 27 5 3.2 17.7 0.00 0.00 0.00 27 1013.8
20260504203509 27 350 9.7 17.7 0.00 0.00 0.00 26 1013.8
20260504203032 27 326 8.0 16.1 0.00 0.00 0.00 26 1013.9
20260504202513 27 143 3.2 6.4 0.00 0.00 0.00 26 1013.9
20260504202007 27 130 0.0 9.7 0.00 0.00 0.00 27 1013.9
20260504201519 27 233 1.6 9.7 0.00 0.00 0.00 25 1014.0
20260504201007 27 159 3.2 12.9 0.00 0.00 0.00 29 1014.0
20260504200509 27 172 3.2 12.9 0.00 0.00 0.00 24 1014.1
20260504195510 27 311 3.2 11.3 0.00 0.00 0.00 27 1014.1
20260504195005 27 120 3.2 12.9 0.00 0.00 0.00 27 1014.1
20260504194011 27 360 3.2 12.9 0.00 0.00 0.00 27 1014.0
20260504193510 27 13 4.8 19.3 0.00 0.00 0.00 27 1014.0
20260504193026 27 305 0.0 19.3 0.00 0.00 0.00 28 1014.0
20260504192507 27 315 4.8 12.9 0.00 0.00 0.00 29 1014.1
20260504192012 27 336 4.8 14.5 0.00 0.00 0.00 27 1014.2
20260504191529 26 9 3.2 17.7 0.00 0.00 0.00 29 1014.4
20260504191007 26 278 8.0 17.7 0.00 0.00 0.00 29 1014.5
20260504190507 26 151 3.2 14.5 0.00 0.00 0.00 28 1014.5
20260504185007 26 360 4.8 14.5 0.00 0.00 0.00 31 1014.8
20260504183509 26 360 4.8 17.7 0.00 0.00 0.00 32 1014.9
20260504182509 25 202 1.6 9.7 0.00 0.00 0.00 30 1014.9
20260504182011 25 81 3.2 20.9 0.00 0.00 0.00 33 1015.0
20260504181524 25 360 1.6 20.9 0.00 0.00 0.00 31 1015.0
20260504181015 25 292 4.8 17.7 0.00 0.00 0.00 34 1014.9
20260504180511 24 330 3.2 16.1 0.00 0.00 0.00 33 1015.0
20260504180032 25 208 3.2 16.1 0.00 0.00 0.00 31 1015.0
20260504175007 25 29 3.2 16.1 0.00 0.00 0.00 33 1015.1
20260504174008 24 298 4.8 12.9 0.00 0.00 0.00 37 1015.2
20260504173507 24 342 3.2 12.9 0.00 0.00 0.00 37 1015.3
20260504173018 24 105 1.6 12.9 0.00 0.00 0.00 38 1015.4
20260504172508 24 75 3.2 12.9 0.00 0.00 0.00 38 1015.5
20260504172006 23 116 1.6 8.0 0.00 0.00 0.00 37 1015.6